Satellite: HRBE
Catalog number: 37855
Epoch time: 14016.50005881
Element set: 693
Inclination: 101.7131 deg
RA of node: 335.2197 deg
Eccentricity: 0.0227098
Arg of perigee: 133.3612 deg
Mean anomaly: 344.1997 deg
Mean motion: 14.86783682 rev/day
Decay rate: 5.029e-05 rev/day^2
Epoch rev: 12011
Checksum: 295
Satellite: RS-39
Catalog number: 38051
Epoch time: 14016.88334942
Element set: 164
Inclination: 051.6348 deg
RA of node: 253.4047 deg
Eccentricity: 0.0005896
Arg of perigee: 320.2326 deg
Mean anomaly: 147.5037 deg
Mean motion: 15.42213245 rev/day
Decay rate: 3.3044e-04 rev/day^2
Epoch rev: 11063
Checksum: 280
Satellite: E-STAR
Catalog number: 38079
Epoch time: 14016.46101936
Element set: 713
Inclination: 069.4661 deg
RA of node: 021.3035 deg
Eccentricity: 0.0503547
Arg of perigee: 210.1658 deg
Mean anomaly: 306.7926 deg
Mean motion: 14.74704217 rev/day
Decay rate: 6.2366e-04 rev/day^2
Epoch rev: 10084
Checksum: 287
Satellite: GOLIAT
Catalog number: 38085
Epoch time: 14016.84186443
Element set: 725
Inclination: 069.4710 deg
RA of node: 024.6954 deg
Eccentricity: 0.0519167
Arg of perigee: 211.7798 deg
Mean anomaly: 221.6309 deg
Mean motion: 14.71332521 rev/day
Decay rate: 6.9534e-04 rev/day^2
Epoch rev: 10078
Checksum: 311
Satellite: HORYU-2
Catalog number: 38340
Epoch time: 14015.90724048
Element set: 732
Inclination: 098.2440 deg
RA of node: 330.7959 deg
Eccentricity: 0.0011808
Arg of perigee: 303.4243 deg
Mean anomaly: 056.5829 deg
Mean motion: 14.71687937 rev/day
Decay rate: 2.135e-05 rev/day^2
Epoch rev: 8939
Checksum: 314
Satellite: RS-40
Catalog number: 38736
Epoch time: 14016.15095523
Element set: 477
Inclination: 082.4774 deg
RA of node: 022.3358 deg
Eccentricity: 0.0020478
Arg of perigee: 219.4594 deg
Mean anomaly: 140.4997 deg
Mean motion: 12.42875524 rev/day
Decay rate: 1.0e-07 rev/day^2
Epoch rev: 6670
Checksum: 306
Satellite: PROITERES
Catalog number: 38756
Epoch time: 14016.82505985
Element set: 490
Inclination: 098.2361 deg
RA of node: 102.6370 deg
Eccentricity: 0.0013300
Arg of perigee: 141.3093 deg
Mean anomaly: 218.9056 deg
Mean motion: 14.74586762 rev/day
Decay rate: 1.029e-05 rev/day^2
Epoch rev: 7287
Checksum: 297
Satellite: BEESAT-3
Catalog number: 39134
Epoch time: 14016.91676522
Element set: 475
Inclination: 064.8802 deg
RA of node: 256.4169 deg
Eccentricity: 0.0012157
Arg of perigee: 330.6828 deg
Mean anomaly: 029.3604 deg
Mean motion: 15.02614759 rev/day
Decay rate: 6.343e-05 rev/day^2
Epoch rev: 4091
Checksum: 299
Satellite: BEESAT-2
Catalog number: 39136
Epoch time: 14016.86815923
Element set: 465
Inclination: 064.8767 deg
RA of node: 256.6973 deg
Eccentricity: 0.0012346
Arg of perigee: 330.9463 deg
Mean anomaly: 029.0962 deg
Mean motion: 15.02331568 rev/day
Decay rate: 5.573e-05 rev/day^2
Epoch rev: 4090
Checksum: 317
Satellite: CAPE-2
Catalog number: 39380
Epoch time: 14016.61407246
Element set: 65
Inclination: 040.5185 deg
RA of node: 275.3533 deg
Eccentricity: 0.0005091
Arg of perigee: 330.6569 deg
Mean anomaly: 029.3960 deg
Mean motion: 15.21441017 rev/day
Decay rate: 4.969e-05 rev/day^2
Epoch rev: 877
Checksum: 290
Satellite: TRLBLAZER
Catalog number: 39382
Epoch time: 14016.02493444
Element set: 70
Inclination: 040.5033 deg
RA of node: 277.8523 deg
Eccentricity: 0.0004474
Arg of perigee: 275.5074 deg
Mean anomaly: 084.5053 deg
Mean motion: 15.24944238 rev/day
Decay rate: 3.6910e-04 rev/day^2
Epoch rev: 868
Checksum: 287
Satellite: TECHEDST3
Catalog number: 39415
Epoch time: 14015.90293569
Element set: 126
Inclination: 051.6250 deg
RA of node: 126.7358 deg
Eccentricity: 0.0011329
Arg of perigee: 345.4786 deg
Mean anomaly: 014.6459 deg
Mean motion: 16.27530738 rev/day
Decay rate: 4.89e-06 rev/day^2
Epoch rev: 886
Checksum: 315
Satellite: ZACUBE-1
Catalog number: 39417
Epoch time: 14016.76851778
Element set: 172
Inclination: 097.7940 deg
RA of node: 092.5469 deg
Eccentricity: 0.0063888
Arg of perigee: 015.5771 deg
Mean anomaly: 344.7376 deg
Mean motion: 14.77334931 rev/day
Decay rate: 1.741e-05 rev/day^2
Epoch rev: 833
Checksum: 338
Satellite: TRITON-1
Catalog number: 39427
Epoch time: 14016.22799075
Element set: 46
Inclination: 097.7835 deg
RA of node: 090.9055 deg
Eccentricity: 0.0120299
Arg of perigee: 014.2362 deg
Mean anomaly: 346.2177 deg
Mean motion: 14.64737293 rev/day
Decay rate: 1.217e-05 rev/day^2
Epoch rev: 814
Checksum: 306
Satellite: DELFIN3XT
Catalog number: 39428
Epoch time: 14016.73579736
Element set: 50
Inclination: 097.7832 deg
RA of node: 091.1633 deg
Eccentricity: 0.0131489
Arg of perigee: 012.8286 deg
Mean anomaly: 347.6209 deg
Mean motion: 14.62250272 rev/day
Decay rate: 2.096e-05 rev/day^2
Epoch rev: 819
Checksum: 310
Satellite: GOMX-1
Catalog number: 39430
Epoch time: 14016.76185968
Element set: 141
Inclination: 097.7799 deg
RA of node: 090.6632 deg
Eccentricity: 0.0158957
Arg of perigee: 013.3084 deg
Mean anomaly: 347.2195 deg
Mean motion: 14.56193778 rev/day
Decay rate: 1.155e-05 rev/day^2
Epoch rev: 817
Checksum: 335
Satellite: $50SAT
Catalog number: 39436
Epoch time: 14016.16312422
Element set: 55
Inclination: 097.7943 deg
RA of node: 092.5792 deg
Eccentricity: 0.0030754
Arg of perigee: 031.7388 deg
Mean anomaly: 328.5506 deg
Mean motion: 14.85003692 rev/day
Decay rate: 1.1930e-04 rev/day^2
Epoch rev: 827
Checksum: 300
Satellite: PUCPSAT-1
Catalog number: 39442
Epoch time: 14016.48179291
Element set: 41
Inclination: 097.7966 deg
RA of node: 092.9416 deg
Eccentricity: 0.0036618
Arg of perigee: 024.9830 deg
Mean anomaly: 335.3143 deg
Mean motion: 14.84943627 rev/day
Decay rate: 2.774e-05 rev/day^2
Epoch rev: 710
Checksum: 313
/EX